Madison, MN

10:36 PM CDT on September 17, 2019 (GMT -0500)
Madison-Lac Qui Parle County

Weather History for KDXX - July, 2019

Change the Weather History Date:

Monday, July 15, 2019

  Actual Average (KAQP) Record (KAQP)
Temperature  
Mean Temperature 84 °F -  
Max Temperature 93 °F 80 °F 96 °F (2006)
Min Temperature 75 °F 60 °F 50 °F (2016)
Cooling Degree Days 19    
Growing Degree Days 34 (Base 50)    
Moisture  
Dew Point 72 °F    
Average Humidity 65    
Maximum Humidity 89    
Minimum Humidity 43    
Precipitation  
Precipitation 0.00 in - - ()
Sea Level Pressure  
Sea Level Pressure 29.82 in    
Wind  
Wind Speed 7 mph (WSW)    
Max Wind Speed 16 mph    
Max Gust Speed 28 mph    
Visibility 10 miles    
Events Thunderstorm    
Averages and records for this station are not official NWS values.
T = Trace of Precipitation, MM = Missing Value Source: NWS Daily Summary

Daily Weather History Graph

Daily Weather History Graph

Search for Another Location

Airport or City:

Astronomy

Jul. 15, 2019 Rise Set
Actual Time 5:52 AM CDT 9:08 PM CDT
Civil Twilight 5:16 AM CDT 9:44 PM CDT
Nautical Twilight 4:29 AM CDT 10:31 PM CDT
Astronomical Twilight 3:31 AM CDT 11:28 PM CDT
Moon 8:28 PM CDT (7/15) 4:39 AM CDT (7/15)
Length of Visible Light 16h 28m
Length of Day
15h 16m
Waxing Gibbous, 99% of the Moon is Illuminated
Jul 15
Waxing Gibbous
Jul 16
Full
Jul 24
Last Quarter
Jul 31
New
Aug 7
First Quarter

Hourly Weather History & Observations

Time (CDT) Temp. Heat Index Dew Point Humidity Pressure Visibility Wind Dir Wind Speed Gust Speed Precip Events Conditions
12:17 AM 80.6 °F 85.4 °F 73.4 °F 79% 29.88 in 10.0 mi SSW 6.9 mph - N/A   Clear
12:36 AM 80.6 °F 85.4 °F 73.4 °F 79% 29.88 in 10.0 mi South 9.2 mph - N/A   Clear
12:55 AM 82.4 °F 88.2 °F 73.4 °F 74% 29.87 in 10.0 mi South 9.2 mph - N/A   Clear
12:56 AM 82.4 °F 88.2 °F 73.4 °F 74% 29.87 in 10.0 mi South 10.4 mph - N/A   Clear
1:15 AM 82.4 °F 88.2 °F 73.4 °F 74% 29.87 in 10.0 mi South 9.2 mph 17.3 mph N/A   Clear
1:37 AM 80.6 °F 85.4 °F 73.4 °F 79% 29.86 in 10.0 mi South 8.1 mph - N/A   Clear
1:55 AM 80.6 °F 84.6 °F 71.6 °F 74% 29.86 in 10.0 mi South 6.9 mph - N/A   Scattered Clouds
2:15 AM 78.8 °F - 71.6 °F 78% 29.86 in 10.0 mi SSW 4.6 mph - N/A   Clear
2:16 AM 78.8 °F - 71.6 °F 78% 29.86 in 10.0 mi SW 5.8 mph - N/A   Clear
2:35 AM 80.6 °F 84.6 °F 71.6 °F 74% 29.86 in 10.0 mi SSW 6.9 mph - N/A   Clear
2:36 AM 80.6 °F 84.6 °F 71.6 °F 74% 29.86 in 10.0 mi SSW 6.9 mph - N/A   Clear
2:59 AM 80.6 °F 84.6 °F 71.6 °F 74% 29.85 in 10.0 mi SSW 6.9 mph - N/A   Clear
3:16 AM 80.6 °F 84.6 °F 71.6 °F 74% 29.86 in 10.0 mi SSW 11.5 mph 16.1 mph N/A Thunderstorm Clear
3:36 AM 82.4 °F 87.2 °F 71.6 °F 70% 29.85 in 10.0 mi SW 16.1 mph 21.9 mph N/A   Clear
3:55 AM 80.6 °F 82.7 °F 66.2 °F 61% 29.82 in 10.0 mi SSW 12.7 mph 27.6 mph N/A   Clear
4:15 AM 78.8 °F - 64.4 °F 61% 29.82 in 10.0 mi SSW 9.2 mph - N/A   Clear
4:19 AM 78.8 °F - 64.4 °F 61% 29.81 in 10.0 mi SW 6.9 mph - N/A   Clear
4:38 AM 78.8 °F - 64.4 °F 61% 29.82 in 10.0 mi SSW 6.9 mph - N/A Thunderstorm Thunderstorm
4:56 AM 78.8 °F - 64.4 °F 61% 29.85 in 10.0 mi West 4.6 mph - N/A Thunderstorm Clear
5:15 AM 77.0 °F - 64.4 °F 65% 29.85 in 10.0 mi SW 6.9 mph - N/A Thunderstorm Clear
5:16 AM 77.0 °F - 64.4 °F 65% 29.85 in 10.0 mi SW 6.9 mph - N/A Thunderstorm Clear
5:35 AM 78.8 °F - 68.0 °F 69% 29.85 in 10.0 mi WSW 5.8 mph - N/A   Clear
5:36 AM 78.8 °F - 68.0 °F 69% 29.85 in 10.0 mi WSW 5.8 mph - N/A   Clear
5:58 AM 78.8 °F - 69.8 °F 74% 29.83 in 10.0 mi WSW 9.2 mph - N/A   Clear
6:16 AM 78.8 °F - 69.8 °F 74% 29.82 in 10.0 mi South 4.6 mph - N/A   Clear
6:35 AM 78.8 °F - 68.0 °F 69% 29.81 in 10.0 mi SW 9.2 mph - N/A   Clear
6:55 AM 78.8 °F - 69.8 °F 74% 29.81 in 10.0 mi SW 5.8 mph - N/A   Clear
6:56 AM 78.8 °F - 69.8 °F 74% 29.81 in 10.0 mi SW 6.9 mph - N/A   Clear
7:15 AM 80.6 °F 83.2 °F 68.0 °F 65% 29.81 in 10.0 mi SW 5.8 mph - N/A   Clear
7:20 AM 80.6 °F 83.2 °F 68.0 °F 65% 29.81 in 10.0 mi SW 4.6 mph - N/A   Clear
7:37 AM 80.6 °F 83.2 °F 68.0 °F 65% 29.80 in 10.0 mi Calm Calm - N/A   Clear
7:55 AM 80.6 °F 84.6 °F 71.6 °F 74% 29.81 in 10.0 mi South 3.5 mph - N/A   Clear
8:15 AM 80.6 °F 84.6 °F 71.6 °F 74% 29.81 in 10.0 mi Calm Calm - N/A   Clear
8:16 AM 80.6 °F 84.6 °F 71.6 °F 74% 29.81 in 10.0 mi Calm Calm - N/A   Clear
8:35 AM 82.4 °F 86.3 °F 69.8 °F 66% 29.81 in 10.0 mi WSW 4.6 mph - N/A   Clear
8:58 AM 82.4 °F 86.3 °F 69.8 °F 66% 29.82 in 10.0 mi WSW 9.2 mph - N/A   Clear
9:17 AM 84.2 °F 88.4 °F 69.8 °F 62% 29.82 in 10.0 mi SW 6.9 mph - N/A   Clear
9:36 AM 84.2 °F 88.4 °F 69.8 °F 62% 29.84 in 10.0 mi SW 10.4 mph - N/A   Clear
9:55 AM 84.2 °F 88.4 °F 69.8 °F 62% 29.83 in 10.0 mi SW 4.6 mph - N/A   Clear
9:56 AM 84.2 °F 89.6 °F 71.6 °F 66% 29.83 in 10.0 mi SW 5.8 mph - N/A   Clear
10:15 AM 86.0 °F 91.8 °F 71.6 °F 62% 29.83 in 10.0 mi SW 3.5 mph - N/A   Clear
10:37 AM 86.0 °F 91.8 °F 71.6 °F 62% 29.83 in 10.0 mi SW 8.1 mph - N/A   Clear
10:56 AM 87.8 °F 95.6 °F 73.4 °F 62% 29.82 in 10.0 mi SW 5.8 mph - N/A   Clear
11:15 AM 87.8 °F 95.6 °F 73.4 °F 62% 29.82 in 10.0 mi SW 10.4 mph - N/A   Clear
11:16 AM 87.8 °F 95.6 °F 73.4 °F 62% 29.82 in 10.0 mi SW 10.4 mph - N/A   Clear
11:35 AM 87.8 °F 95.6 °F 73.4 °F 62% 29.82 in 10.0 mi SW 11.5 mph - N/A   Clear
11:39 AM 87.8 °F 97.6 °F 75.2 °F 66% 29.82 in 10.0 mi SW 10.4 mph - N/A   Clear
11:58 AM 89.6 °F 99.8 °F 75.2 °F 62% 29.81 in 10.0 mi SW 9.2 mph - N/A   Clear
12:15 PM 89.6 °F 99.8 °F 75.2 °F 62% 29.81 in 10.0 mi SSW 6.9 mph - N/A   Clear
12:35 PM 89.6 °F 99.8 °F 75.2 °F 62% 29.80 in 10.0 mi SW 6.9 mph - N/A   Clear
12:36 PM 89.6 °F 99.8 °F 75.2 °F 62% 29.80 in 10.0 mi SSW 5.8 mph - N/A   Clear
12:55 PM 89.6 °F 99.8 °F 75.2 °F 62% 29.80 in 10.0 mi SW 8.1 mph - N/A   Clear
1:00 PM 89.6 °F 99.8 °F 75.2 °F 62% 29.80 in 10.0 mi SW 9.2 mph - N/A   Clear
1:18 PM 89.6 °F 99.8 °F 75.2 °F 62% 29.80 in 10.0 mi SW 6.9 mph - N/A   Clear
1:37 PM 89.6 °F 98.2 °F 73.4 °F 59% 29.80 in 10.0 mi West 3.5 mph - N/A   Scattered Clouds
1:55 PM 89.6 °F 99.8 °F 75.2 °F 62% 29.80 in 10.0 mi WSW 4.6 mph - N/A   Scattered Clouds
1:56 PM 89.6 °F 99.8 °F 75.2 °F 62% 29.80 in 10.0 mi WSW 4.6 mph - N/A   Scattered Clouds
2:15 PM 91.4 °F 102.5 °F 75.2 °F 59% 29.80 in 10.0 mi West 8.1 mph - N/A   Scattered Clouds
2:16 PM 91.4 °F 102.5 °F 75.2 °F 59% 29.80 in 10.0 mi West 8.1 mph - N/A   Scattered Clouds
2:38 PM 91.4 °F 102.5 °F 75.2 °F 59% 29.80 in 10.0 mi West 5.8 mph - N/A   Scattered Clouds
2:56 PM 91.4 °F 100.1 °F 73.4 °F 55% 29.79 in 10.0 mi WNW 3.5 mph - N/A   Clear
3:15 PM 93.2 °F 102.4 °F 73.4 °F 52% 29.79 in 10.0 mi NW 4.6 mph - N/A   Clear
3:16 PM 93.2 °F 102.4 °F 73.4 °F 52% 29.79 in 10.0 mi NW 4.6 mph - N/A   Clear
3:35 PM 91.4 °F 100.1 °F 73.4 °F 55% 29.80 in 10.0 mi WNW 9.2 mph - N/A   Scattered Clouds
3:36 PM 93.2 °F 102.4 °F 73.4 °F 52% 29.80 in 10.0 mi WNW 9.2 mph - N/A   Scattered Clouds
3:55 PM 93.2 °F 105.0 °F 75.2 °F 56% 29.80 in 10.0 mi WNW 6.9 mph - N/A   Scattered Clouds
3:59 PM 93.2 °F 102.4 °F 73.4 °F 52% 29.80 in 10.0 mi West 6.9 mph - N/A   Scattered Clouds
4:16 PM 93.2 °F 105.0 °F 75.2 °F 56% 29.80 in 10.0 mi WNW 8.1 mph - N/A   Clear
4:35 PM 91.4 °F 102.5 °F 75.2 °F 59% 29.79 in 10.0 mi West 5.8 mph - N/A   Scattered Clouds
4:36 PM 91.4 °F 102.5 °F 75.2 °F 59% 29.79 in 10.0 mi West 6.9 mph - N/A   Scattered Clouds
4:55 PM 93.2 °F 105.0 °F 75.2 °F 56% 29.78 in 10.0 mi West 5.8 mph - N/A   Scattered Clouds
5:18 PM 93.2 °F 105.0 °F 75.2 °F 56% 29.78 in 10.0 mi WNW 10.4 mph - N/A   Mostly Cloudy
5:37 PM 93.2 °F 105.0 °F 75.2 °F 56% 29.77 in 10.0 mi NNW 5.8 mph - N/A   Scattered Clouds
5:55 PM 93.2 °F 102.4 °F 73.4 °F 52% 29.77 in 10.0 mi WNW 10.4 mph - N/A   Scattered Clouds
5:56 PM 93.2 °F 102.4 °F 73.4 °F 52% 29.77 in 10.0 mi West 9.2 mph - N/A   Scattered Clouds
6:15 PM 91.4 °F 100.1 °F 73.4 °F 55% 29.77 in 10.0 mi West 8.1 mph - N/A   Clear
6:16 PM 93.2 °F 102.4 °F 73.4 °F 52% 29.77 in 10.0 mi West 8.1 mph - N/A   Clear
6:35 PM 93.2 °F 100.5 °F 71.6 °F 49% 29.76 in 10.0 mi WNW 10.4 mph - N/A   Clear
6:57 PM 91.4 °F 94.0 °F 66.2 °F 43% 29.77 in 10.0 mi WNW 12.7 mph 16.1 mph N/A   Clear
7:15 PM 91.4 °F 96.8 °F 69.8 °F 49% 29.77 in 10.0 mi WNW 5.8 mph - N/A   Clear
7:35 PM 91.4 °F 96.8 °F 69.8 °F 49% 29.78 in 10.0 mi WNW 6.9 mph - N/A   Clear
7:36 PM 91.4 °F 96.8 °F 69.8 °F 49% 29.78 in 10.0 mi WNW 6.9 mph - N/A   Clear
7:55 PM 89.6 °F 94.7 °F 69.8 °F 52% 29.78 in 10.0 mi WNW 9.2 mph - N/A   Clear
7:56 PM 89.6 °F 94.7 °F 69.8 °F 52% 29.78 in 10.0 mi WNW 8.1 mph - N/A   Clear
8:19 PM 87.8 °F 93.8 °F 71.6 °F 58% 29.79 in 10.0 mi NW 6.9 mph - N/A   Clear
8:36 PM 84.2 °F 89.6 °F 71.6 °F 66% 29.79 in 10.0 mi NW 5.8 mph - N/A   Clear
8:55 PM 84.2 °F 89.6 °F 71.6 °F 66% 29.80 in 10.0 mi WNW 5.8 mph - N/A   Clear
8:56 PM 84.2 °F 89.6 °F 71.6 °F 66% 29.80 in 10.0 mi WNW 5.8 mph - N/A   Clear
9:15 PM 82.4 °F 87.2 °F 71.6 °F 70% 29.81 in 10.0 mi WNW 4.6 mph - N/A   Clear
9:16 PM 82.4 °F 87.2 °F 71.6 °F 70% 29.81 in 10.0 mi WNW 4.6 mph - N/A   Clear
9:39 PM 78.8 °F - 71.6 °F 78% 29.82 in 10.0 mi Calm Calm - N/A   Clear
9:57 PM 80.6 °F 84.6 °F 71.6 °F 74% 29.82 in 10.0 mi NW 3.5 mph - N/A   Clear
10:16 PM 80.6 °F 84.6 °F 71.6 °F 74% 29.83 in 10.0 mi NW 4.6 mph - N/A   Clear
10:35 PM 78.8 °F - 71.6 °F 78% 29.83 in 10.0 mi NW 3.5 mph - N/A   Clear
10:36 PM 78.8 °F - 71.6 °F 78% 29.83 in 10.0 mi NW 3.5 mph - N/A   Clear
10:55 PM 78.8 °F - 69.8 °F 74% 29.83 in 10.0 mi NW 4.6 mph - N/A   Clear
11:16 PM 80.6 °F 83.9 °F 69.8 °F 70% 29.84 in 10.0 mi NW 3.5 mph - N/A   Clear
11:35 PM 77.0 °F - 71.6 °F 83% 29.85 in 10.0 mi WNW 3.5 mph - N/A   Clear
11:36 PM 77.0 °F - 71.6 °F 83% 29.85 in 10.0 mi WNW 3.5 mph - N/A   Clear
11:55 PM 75.2 °F - 71.6 °F 89% 29.85 in 10.0 mi Calm Calm - N/A   Clear
11:56 PM 75.2 °F - 71.6 °F 89% 29.85 in 10.0 mi Calm Calm - N/A   Clear